DAL2989 KDTW-KBDL

Flight info

Callsign DAL2989
Flight time 1h 10m
Altitude 37000
Route HHOWE4 LNCON JHW Q82 MEMMS WILET STELA1
Aircraft A320/M-SDE3FGHIRWY/LB1

Departure

Time 2026-05-05 18:45
Airport Detroit Metropolitan Wayne County Airport (KDTW)

Arrival

Time 2026-05-05 19:56
Airport Bradley International Airport (KBDL)
Time Latitude Longitude Altitude Speed Heading
2026-05-05 18:13 42.21339 -83.35368 651 ft 0 kts 298°
2026-05-05 18:35 42.21335 -83.35356 649 ft 4 kts 300°
2026-05-05 18:35 42.21323 -83.35331 650 ft 1 kts 301°
2026-05-05 18:35 42.21321 -83.35326 651 ft 0 kts 301°
2026-05-05 18:36 42.21320 -83.35325 651 ft 2 kts 301°
2026-05-05 18:36 42.21311 -83.35306 651 ft 2 kts 339°
2026-05-05 18:36 42.21307 -83.35303 651 ft 0 kts
2026-05-05 18:37 42.21309 -83.35302 651 ft 2 kts
2026-05-05 18:37 42.21335 -83.35277 649 ft 8 kts 40°
2026-05-05 18:38 42.21374 -83.35231 650 ft 7 kts 36°
2026-05-05 18:38 42.21432 -83.35185 649 ft 10 kts 27°
2026-05-05 18:38 42.21493 -83.35143 649 ft 9 kts 27°
2026-05-05 18:38 42.21562 -83.35081 649 ft 15 kts 42°
2026-05-05 18:39 42.21630 -83.34989 650 ft 13 kts 45°
2026-05-05 18:39 42.21689 -83.34912 652 ft 11 kts 43°
2026-05-05 18:39 42.21748 -83.34837 652 ft 12 kts 44°
2026-05-05 18:39 42.21811 -83.34757 653 ft 12 kts 43°
2026-05-05 18:40 42.21835 -83.34655 650 ft 11 kts 89°
2026-05-05 18:40 42.21836 -83.34556 650 ft 10 kts 88°
2026-05-05 18:40 42.21871 -83.34492 650 ft 9 kts 34°
2026-05-05 18:40 42.21941 -83.34440 649 ft 12 kts 30°
2026-05-05 18:41 42.22021 -83.34380 649 ft 16 kts 29°
2026-05-05 18:41 42.22128 -83.34301 649 ft 18 kts 28°
2026-05-05 18:41 42.22232 -83.34224 649 ft 16 kts 29°
2026-05-05 18:41 42.22327 -83.34154 649 ft 15 kts 28°
2026-05-05 18:42 42.22420 -83.34085 651 ft 16 kts 28°
2026-05-05 18:42 42.22512 -83.34018 650 ft 14 kts 28°
2026-05-05 18:42 42.22595 -83.33957 650 ft 13 kts 28°
2026-05-05 18:42 42.22672 -83.33900 650 ft 12 kts 29°
2026-05-05 18:43 42.22761 -83.33833 649 ft 16 kts 29°
2026-05-05 18:43 42.22834 -83.33778 649 ft 9 kts 29°
2026-05-05 18:43 42.22856 -83.33717 649 ft 7 kts 106°
2026-05-05 18:43 42.22832 -83.33662 649 ft 7 kts 120°
2026-05-05 18:44 42.22794 -83.33644 649 ft 5 kts 185°
2026-05-05 18:44 42.22774 -83.33656 650 ft 0 kts 209°
2026-05-05 18:45 42.22749 -83.33675 652 ft 23 kts 209°
2026-05-05 18:45 42.22369 -83.33957 651 ft 98 kts 207°
2026-05-05 18:45 42.21589 -83.34515 680 ft 150 kts 212°
2026-05-05 18:45 42.20667 -83.35170 1348 ft 150 kts 212°
2026-05-05 18:46 42.19750 -83.35833 2070 ft 151 kts 208°
2026-05-05 18:46 42.18690 -83.36109 2631 ft 166 kts 182°
2026-05-05 18:46 42.17463 -83.35802 2957 ft 192 kts 171°
2026-05-05 18:46 42.16083 -83.35393 3298 ft 215 kts 172°
2026-05-05 18:47 42.14555 -83.34940 3683 ft 237 kts 172°
2026-05-05 18:47 42.12912 -83.34443 4481 ft 244 kts 172°
2026-05-05 18:47 42.11341 -83.33469 5508 ft 258 kts 151°
2026-05-05 18:47 42.10138 -83.31588 6454 ft 279 kts 126°
2026-05-05 18:48 42.09600 -83.28915 6865 ft 314 kts 97°
2026-05-05 18:48 42.09634 -83.25976 6996 ft 320 kts 91°
2026-05-05 18:48 42.09935 -83.22998 7013 ft 324 kts 76°
2026-05-05 18:48 42.10564 -83.20076 7016 ft 325 kts 76°
2026-05-05 18:49 42.11145 -83.17128 7017 ft 325 kts 78°
2026-05-05 18:49 42.11709 -83.14178 7011 ft 326 kts 75°
2026-05-05 18:49 42.12471 -83.11274 7401 ft 333 kts 72°
2026-05-05 18:49 42.13252 -83.08344 8402 ft 334 kts 72°
2026-05-05 18:50 42.14046 -83.05374 9299 ft 339 kts 72°
2026-05-05 18:50 42.14855 -83.02355 10115 ft 347 kts 71°
2026-05-05 18:50 42.15703 -82.99202 10471 ft 370 kts 71°
2026-05-05 18:50 42.16610 -82.95841 10821 ft 390 kts 71°
2026-05-05 18:51 42.17549 -82.92370 11517 ft 397 kts 71°
2026-05-05 18:51 42.18501 -82.88849 12310 ft 401 kts 71°
2026-05-05 18:51 42.19459 -82.85287 13086 ft 407 kts 71°
2026-05-05 18:51 42.20425 -82.81680 13806 ft 412 kts 71°
2026-05-05 18:52 42.21401 -82.78031 14487 ft 415 kts 71°
2026-05-05 18:52 42.22382 -82.74350 15186 ft 419 kts 71°
2026-05-05 18:52 42.23367 -82.70638 15865 ft 422 kts 71°
2026-05-05 18:52 42.24338 -82.66876 16527 ft 426 kts 74°
2026-05-05 18:53 42.24955 -82.62959 17169 ft 428 kts 85°
2026-05-05 18:53 42.25163 -82.58943 17814 ft 431 kts 89°
2026-05-05 18:53 42.25318 -82.54883 18415 ft 435 kts 89°
2026-05-05 18:53 42.25477 -82.50788 18983 ft 439 kts 89°
2026-05-05 18:54 42.25636 -82.46658 19537 ft 443 kts 90°
2026-05-05 18:54 42.25717 -82.42489 20096 ft 446 kts 92°
2026-05-05 18:54 42.25707 -82.38288 20637 ft 449 kts 94°
2026-05-05 18:54 42.25636 -82.34103 21161 ft 454 kts 95°
2026-05-05 18:55 42.25538 -82.29830 21703 ft 458 kts 95°
2026-05-05 18:55 42.25442 -82.25515 22240 ft 462 kts 95°
2026-05-05 18:55 42.25359 -82.21160 22792 ft 467 kts 95°
2026-05-05 18:55 42.25294 -82.16750 23353 ft 472 kts 94°
2026-05-05 18:56 42.25246 -82.12313 23812 ft 476 kts 94°
2026-05-05 18:56 42.25202 -82.07815 24220 ft 481 kts 94°
2026-05-05 18:56 42.25153 -82.03288 24603 ft 485 kts 94°
2026-05-05 18:56 42.25098 -81.98717 24982 ft 489 kts 94°
2026-05-05 18:57 42.25037 -81.94115 25375 ft 493 kts 94°
2026-05-05 18:57 42.24972 -81.89472 25748 ft 497 kts 94°
2026-05-05 18:57 42.24903 -81.84797 26104 ft 500 kts 94°
2026-05-05 18:57 42.24831 -81.80083 26449 ft 504 kts 94°
2026-05-05 18:58 42.24758 -81.75339 26799 ft 508 kts 94°
2026-05-05 18:58 42.24683 -81.70549 27168 ft 512 kts 94°
2026-05-05 18:58 42.24607 -81.65732 27512 ft 516 kts 94°
2026-05-05 18:58 42.24530 -81.60875 27808 ft 519 kts 93°
2026-05-05 18:59 42.24446 -81.55985 28132 ft 523 kts 94°
2026-05-05 18:59 42.24359 -81.51062 28454 ft 526 kts 93°
2026-05-05 18:59 42.24279 -81.46111 28769 ft 530 kts 93°
2026-05-05 18:59 42.24212 -81.41124 29075 ft 533 kts 93°
2026-05-05 19:00 42.24152 -81.36113 29375 ft 536 kts 92°
2026-05-05 19:00 42.24092 -81.31072 29659 ft 539 kts 92°
2026-05-05 19:00 42.24026 -81.26001 29937 ft 541 kts 92°
2026-05-05 19:00 42.23954 -81.20927 30257 ft 541 kts 93°
2026-05-05 19:01 42.23876 -81.15841 30522 ft 543 kts 93°
2026-05-05 19:01 42.23793 -81.10744 30764 ft 544 kts 93°
2026-05-05 19:01 42.23705 -81.05627 30986 ft 546 kts 93°
2026-05-05 19:01 42.23614 -81.00566 31266 ft 546 kts 94°
2026-05-05 19:02 42.23521 -80.95380 31585 ft 546 kts 94°
2026-05-05 19:02 42.23430 -80.90258 31888 ft 546 kts 94°
2026-05-05 19:02 42.23338 -80.85152 32247 ft 544 kts 94°
2026-05-05 19:02 42.23249 -80.80118 32572 ft 543 kts 94°
2026-05-05 19:03 42.23155 -80.75024 32774 ft 543 kts 94°
2026-05-05 19:03 42.23058 -80.69959 32810 ft 538 kts 94°
2026-05-05 19:03 42.22854 -80.59824 32854 ft 542 kts 94°
2026-05-05 19:04 42.22645 -80.49654 32811 ft 541 kts 94°
2026-05-05 19:04 42.22430 -80.39530 32811 ft 539 kts 94°
2026-05-05 19:05 42.22196 -80.29425 32812 ft 539 kts 94°
2026-05-05 19:05 42.21950 -80.19334 32807 ft 538 kts 94°
2026-05-05 19:06 42.21704 -80.09255 32811 ft 537 kts 94°
2026-05-05 19:06 42.21450 -79.99199 32825 ft 535 kts 94°
2026-05-05 19:07 42.21229 -79.90866 32828 ft 535 kts 94°
2026-05-05 19:07 42.20907 -79.79169 32805 ft 534 kts 94°
2026-05-05 19:08 42.20626 -79.69174 32827 ft 532 kts 94°
2026-05-05 19:08 42.20341 -79.59275 32830 ft 531 kts 94°
2026-05-05 19:09 42.20050 -79.49326 32836 ft 531 kts 94°
2026-05-05 19:09 42.19742 -79.39394 32824 ft 530 kts 94°
2026-05-05 19:10 42.19431 -79.29487 32842 ft 528 kts 94°
2026-05-05 19:10 42.19111 -79.19610 32837 ft 527 kts 94°
2026-05-05 19:11 42.19198 -79.09746 32823 ft 527 kts 82°
2026-05-05 19:11 42.20437 -79.00014 32812 ft 526 kts 79°
2026-05-05 19:12 42.21680 -78.90305 32812 ft 525 kts 79°
2026-05-05 19:12 42.22902 -78.80613 32810 ft 524 kts 79°
2026-05-05 19:13 42.24119 -78.70925 32811 ft 523 kts 79°
2026-05-05 19:13 42.25329 -78.61253 32807 ft 522 kts 79°
2026-05-05 19:14 42.26527 -78.51585 32815 ft 522 kts 79°
2026-05-05 19:14 42.27717 -78.41927 32817 ft 521 kts 79°
2026-05-05 19:15 42.28700 -78.33900 32802 ft 521 kts 79°
2026-05-05 19:15 42.30072 -78.22610 32808 ft 521 kts 79°
2026-05-05 19:16 42.31044 -78.14576 32807 ft 521 kts 79°
2026-05-05 19:16 42.32201 -78.04918 32809 ft 521 kts 80°
2026-05-05 19:17 42.33354 -77.95245 32803 ft 521 kts 79°
2026-05-05 19:17 42.34495 -77.85580 32827 ft 520 kts 79°
2026-05-05 19:18 42.35627 -77.75922 32808 ft 520 kts 79°
2026-05-05 19:18 42.36758 -77.66272 32819 ft 521 kts 80°
2026-05-05 19:19 42.37877 -77.56587 32785 ft 521 kts 80°
2026-05-05 19:19 42.38974 -77.46990 32792 ft 520 kts 80°
2026-05-05 19:20 42.40074 -77.37328 32793 ft 519 kts 80°
2026-05-05 19:20 42.41161 -77.27672 32787 ft 519 kts 80°
2026-05-05 19:21 42.42243 -77.18029 32779 ft 518 kts 79°
2026-05-05 19:21 42.43316 -77.08397 32788 ft 517 kts 80°
2026-05-05 19:22 42.44371 -76.98775 32781 ft 516 kts 80°
2026-05-05 19:22 42.45417 -76.89165 32780 ft 516 kts 80°
2026-05-05 19:23 42.46445 -76.79552 32818 ft 515 kts 80°
2026-05-05 19:23 42.47473 -76.69951 32812 ft 515 kts 80°
2026-05-05 19:24 42.48513 -76.60350 32810 ft 515 kts 80°
2026-05-05 19:24 42.49541 -76.50759 32808 ft 514 kts 80°
2026-05-05 19:25 42.50550 -76.41169 32808 ft 514 kts 80°
2026-05-05 19:25 42.51545 -76.31578 32805 ft 514 kts 80°
2026-05-05 19:26 42.52527 -76.22004 32796 ft 513 kts 80°
2026-05-05 19:26 42.53503 -76.12429 32761 ft 512 kts 80°
2026-05-05 19:27 42.54471 -76.02875 32789 ft 511 kts 80°
2026-05-05 19:27 42.55419 -75.93343 32789 ft 510 kts 83°
2026-05-05 19:28 42.55177 -75.83768 32795 ft 509 kts 101°
2026-05-05 19:28 42.53839 -75.74344 32767 ft 509 kts 101°
2026-05-05 19:29 42.52524 -75.64930 32760 ft 508 kts 101°
2026-05-05 19:29 42.51866 -75.60222 32488 ft 508 kts 101°
2026-05-05 19:29 42.51205 -75.55526 32216 ft 506 kts 101°
2026-05-05 19:30 42.50541 -75.50855 31953 ft 505 kts 101°
2026-05-05 19:30 42.49872 -75.46190 31690 ft 504 kts 101°
2026-05-05 19:30 42.49201 -75.41534 31423 ft 503 kts 101°
2026-05-05 19:30 42.48529 -75.36899 31164 ft 500 kts 101°
2026-05-05 19:31 42.47866 -75.32350 30931 ft 499 kts 101°
2026-05-05 19:31 42.47195 -75.27746 30687 ft 498 kts 101°
2026-05-05 19:31 42.46769 -75.23105 30442 ft 496 kts 92°
2026-05-05 19:31 42.46777 -75.18443 30154 ft 494 kts 87°
2026-05-05 19:32 42.46890 -75.13813 29393 ft 490 kts 88°
2026-05-05 19:32 42.46987 -75.09233 28755 ft 483 kts 88°
2026-05-05 19:32 42.47076 -75.04713 28094 ft 478 kts 89°
2026-05-05 19:32 42.47164 -75.00242 27475 ft 472 kts 89°
2026-05-05 19:33 42.47250 -74.95821 26846 ft 468 kts 89°
2026-05-05 19:33 42.47332 -74.91434 26225 ft 464 kts 89°
2026-05-05 19:33 42.47412 -74.87088 25611 ft 460 kts 89°
2026-05-05 19:33 42.47494 -74.82771 25005 ft 457 kts 89°
2026-05-05 19:34 42.47577 -74.78487 24389 ft 454 kts 90°
2026-05-05 19:34 42.47655 -74.74227 23793 ft 451 kts 90°
2026-05-05 19:34 42.47730 -74.69987 23200 ft 448 kts 90°
2026-05-05 19:35 42.47874 -74.61605 22381 ft 444 kts 90°
2026-05-05 19:35 42.47943 -74.57430 22064 ft 443 kts 90°
2026-05-05 19:35 42.48012 -74.53265 21763 ft 441 kts 90°
2026-05-05 19:35 42.48084 -74.49118 21455 ft 440 kts 90°
2026-05-05 19:36 42.48152 -74.44987 21153 ft 438 kts 90°
2026-05-05 19:36 42.48217 -74.40876 20851 ft 436 kts 90°
2026-05-05 19:36 42.48281 -74.36767 20546 ft 435 kts 90°
2026-05-05 19:36 42.48342 -74.32678 20246 ft 433 kts 90°
2026-05-05 19:37 42.48400 -74.28602 19944 ft 432 kts 90°
2026-05-05 19:37 42.48459 -74.24549 19660 ft 430 kts 90°
2026-05-05 19:37 42.48516 -74.20501 19348 ft 428 kts 90°
2026-05-05 19:37 42.48570 -74.16477 19060 ft 427 kts 90°
2026-05-05 19:38 42.48621 -74.12468 18755 ft 425 kts 90°
2026-05-05 19:38 42.48671 -74.08473 18466 ft 423 kts 90°
2026-05-05 19:38 42.48722 -74.04494 18298 ft 422 kts 90°
2026-05-05 19:38 42.48768 -74.00517 18042 ft 422 kts 91°
2026-05-05 19:39 42.48810 -73.96567 17725 ft 417 kts 91°
2026-05-05 19:39 42.48852 -73.92651 17434 ft 415 kts 91°
2026-05-05 19:39 42.48893 -73.88750 17152 ft 414 kts 91°
2026-05-05 19:39 42.48934 -73.84855 16861 ft 413 kts 91°
2026-05-05 19:40 42.48973 -73.80970 16580 ft 412 kts 91°
2026-05-05 19:40 42.49013 -73.77095 16290 ft 411 kts 91°
2026-05-05 19:40 42.49054 -73.73238 16003 ft 409 kts 91°
2026-05-05 19:40 42.49091 -73.69382 15721 ft 408 kts 91°
2026-05-05 19:41 42.49123 -73.65545 15459 ft 407 kts 91°
2026-05-05 19:41 42.49156 -73.61771 15182 ft 405 kts 91°
2026-05-05 19:41 42.49186 -73.57961 14909 ft 404 kts 91°
2026-05-05 19:41 42.49213 -73.54157 14633 ft 403 kts 91°
2026-05-05 19:42 42.49164 -73.50378 14361 ft 400 kts 98°
2026-05-05 19:42 42.48628 -73.46718 14101 ft 394 kts 111°
2026-05-05 19:42 42.47583 -73.43337 13834 ft 385 kts 124°
2026-05-05 19:42 42.46109 -73.40359 13567 ft 377 kts 136°
2026-05-05 19:43 42.44338 -73.37792 13280 ft 372 kts 141°
2026-05-05 19:43 42.42534 -73.35292 13022 ft 370 kts 141°
2026-05-05 19:43 42.40741 -73.32805 12766 ft 369 kts 141°
2026-05-05 19:43 42.38948 -73.30316 12503 ft 368 kts 141°
2026-05-05 19:44 42.37161 -73.27841 12248 ft 368 kts 140°
2026-05-05 19:44 42.35377 -73.25371 12005 ft 363 kts 140°
2026-05-05 19:44 42.33653 -73.22974 11871 ft 348 kts 141°
2026-05-05 19:44 42.31993 -73.20667 11743 ft 336 kts 141°
2026-05-05 19:45 42.30389 -73.18448 11607 ft 325 kts 141°
2026-05-05 19:45 42.28820 -73.16288 11339 ft 319 kts 141°
2026-05-05 19:45 42.27260 -73.14150 10888 ft 319 kts 141°
2026-05-05 19:45 42.25717 -73.12033 10608 ft 314 kts 141°
2026-05-05 19:46 42.24197 -73.09947 10288 ft 308 kts 141°
2026-05-05 19:46 42.22704 -73.07899 9669 ft 304 kts 142°
2026-05-05 19:46 42.21229 -73.05876 9124 ft 302 kts 142°
2026-05-05 19:46 42.19768 -73.03874 8826 ft 297 kts 141°
2026-05-05 19:47 42.18327 -73.01897 8515 ft 294 kts 142°
2026-05-05 19:47 42.16897 -72.99939 8167 ft 292 kts 142°
2026-05-05 19:47 42.15478 -72.98003 7817 ft 289 kts 141°
2026-05-05 19:47 42.14157 -72.96012 7476 ft 293 kts 128°
2026-05-05 19:48 42.13464 -72.93380 7123 ft 306 kts 105°
2026-05-05 19:48 42.13199 -72.90518 6755 ft 309 kts 97°
2026-05-05 19:48 42.13119 -72.87626 6380 ft 309 kts 95°
2026-05-05 19:48 42.13101 -72.84738 5988 ft 306 kts 93°
2026-05-05 19:49 42.13078 -72.81887 5628 ft 302 kts 95°
2026-05-05 19:49 42.13049 -72.79999 5514 ft 294 kts 96°
2026-05-05 19:49 42.12957 -72.76463 5339 ft 277 kts 97°
2026-05-05 19:49 42.12867 -72.73926 5214 ft 266 kts 98°
2026-05-05 19:50 42.12767 -72.71476 4907 ft 261 kts 99°
2026-05-05 19:50 42.12658 -72.69032 4394 ft 258 kts 98°
2026-05-05 19:50 42.12556 -72.66678 4200 ft 248 kts 98°
2026-05-05 19:50 42.12350 -72.64442 4074 ft 231 kts 114°
2026-05-05 19:51 42.11615 -72.62617 3969 ft 216 kts 139°
2026-05-05 19:51 42.10473 -72.61378 3693 ft 208 kts 161°
2026-05-05 19:51 42.09140 -72.60777 3389 ft 200 kts 172°
2026-05-05 19:51 42.07797 -72.60297 3111 ft 198 kts 172°
2026-05-05 19:52 42.06488 -72.59820 2827 ft 192 kts 172°
2026-05-05 19:52 42.05216 -72.59358 2626 ft 186 kts 172°
2026-05-05 19:52 42.03991 -72.58923 2354 ft 178 kts 173°
2026-05-05 19:52 42.02824 -72.58824 2112 ft 158 kts 188°
2026-05-05 19:53 42.01819 -72.59110 1946 ft 139 kts 198°
2026-05-05 19:53 42.00991 -72.59638 1789 ft 128 kts 208°
2026-05-05 19:53 42.00288 -72.60368 1655 ft 126 kts 217°
2026-05-05 19:53 41.99671 -72.61184 1465 ft 122 kts 218°
2026-05-05 19:54 41.99061 -72.61982 1295 ft 124 kts 219°
2026-05-05 19:54 41.98447 -72.62783 1128 ft 125 kts 221°
2026-05-05 19:54 41.97832 -72.63587 959 ft 126 kts 220°
2026-05-05 19:54 41.97206 -72.64403 807 ft 122 kts 218°
2026-05-05 19:55 41.96589 -72.65208 620 ft 128 kts 223°
2026-05-05 19:55 41.95966 -72.66039 514 ft 128 kts 224°
2026-05-05 19:55 41.95345 -72.66854 350 ft 123 kts 220°
2026-05-05 19:55 41.94745 -72.67651 216 ft 114 kts 218°
2026-05-05 19:56 41.94294 -72.68231 212 ft 63 kts 224°
2026-05-05 19:56 41.94059 -72.68541 213 ft 40 kts 225°
2026-05-05 19:56 41.93887 -72.68769 215 ft 26 kts 225°
2026-05-05 19:56 41.93763 -72.68843 215 ft 19 kts 173°
2026-05-05 19:57 41.93665 -72.68734 206 ft 19 kts 140°
2026-05-05 19:57 41.93616 -72.68674 211 ft 13 kts 137°
2026-05-05 19:57 41.93523 -72.68550 206 ft 15 kts 135°
2026-05-05 19:57 41.93444 -72.68441 209 ft 17 kts 134°
2026-05-05 19:58 41.93357 -72.68325 205 ft 18 kts 136°
2026-05-05 19:58 41.93263 -72.68206 205 ft 19 kts 134°
2026-05-05 19:58 41.93169 -72.68076 206 ft 20 kts 134°
2026-05-05 19:58 41.93076 -72.67953 205 ft 11 kts 136°
2026-05-05 19:59 41.93002 -72.67933 210 ft 12 kts 191°
2026-05-05 19:59 41.92928 -72.67983 209 ft 13 kts 222°
2026-05-05 19:59 41.92905 -72.68048 205 ft 8 kts 285°
2026-05-05 19:59 41.92930 -72.68090 205 ft 4 kts 319°
2026-05-05 20:00 41.92935 -72.68095 205 ft 0 kts 316°